Renton, WA
on Saturday, December 15, 2012

Saturday
Previous Day Next Day
Daily Summary
 ActualAverage (KSEA)Record (KSEA)
Temperature
Mean Temperature °F 40°F  
Max Temperature 43°F 45°F 63°F (1980)
Min Temperature 33°F 35°F 19°F (2008)
Degree Days
Heating Degree Days 27 25  
Month to date heating degree days 360  
Since 1 July heating degree days 1543  
Cooling Degree Days 0 0  
Month to date cooling degree days 0  
Year to date cooling degree days 189  
Moisture
Dew Point 33°F   
Average Humidity 81    
Maximum Humidity 93    
Minimum Humidity 61    
Precipitation
Precipitation 0.13 in 0.16 in 1.60 in (1959)
Month to date precipitation 2.70  
Year to date precipitation 34.84  
Snow
Snow 0.00 in in 1.20 in (1979)
Month to date snowfall  
Since 1 July snowfall  
Snow Depth in   
Wind
Wind Speed 5 mph   
Max Wind Speed 14 mph   
Max Gust Speed 20 mph   
Visibility 7 miles   
Events Fog , Rain   

Key: T is trace of precipitation, MM is missing value
Source: NWS Daily Summary
Time(PST)TemperatureDew PointHumidity Pressure Visibility Wind DirectionWind SpeedGust SpeedPrecipitationEvents Conditions
12:10 AM 35.6°F 33.8°F 93% 29.94 in 4.0 miles SSE 4.6 mph - N/A   Scattered Clouds
12:19 AM 35.6°F 33.8°F 93% 29.93 in 2.5 miles SSE 5.8 mph - N/A   Mostly Cloudy
12:27 AM 35.6°F 33.8°F 93% 29.93 in 0.8 miles South 5.8 mph - N/A   Mostly Cloudy
12:53 AM 34.0°F 32.0°F 92% 29.92 in 0.2 miles South 4.6 mph - N/A Fog Fog
1:17 AM 33.8°F 30.2°F 87% 29.90 in 2.0 miles SSE 3.5 mph - N/A   Mostly Cloudy
1:22 AM 33.8°F 30.2°F 87% 29.90 in 7.0 miles SSE 3.5 mph - N/A   Scattered Clouds
1:40 AM 33.8°F 30.2°F 87% 29.89 in 1.8 miles SSE 4.6 mph - N/A   Partly Cloudy
1:53 AM 33.1°F 30.9°F 92% 29.91 in 1.2 miles SE 5.8 mph - N/A   Scattered Clouds
1:56 AM 33.8°F 30.2°F 87% 29.89 in 0.8 miles SE 4.6 mph - N/A   Mist
2:30 AM 33.8°F 30.2°F 87% 29.89 in 2.5 miles SSE 4.6 mph - N/A   Mostly Cloudy
2:35 AM 33.8°F 30.2°F 87% 29.88 in 8.0 miles SSE 4.6 mph - N/A   Scattered Clouds
2:53 AM 33.1°F 30.0°F 89% 29.90 in 10.0 miles SSE 4.6 mph - N/A   Clear
3:53 AM 34.0°F 30.9°F 89% 29.89 in 10.0 miles SSE 6.9 mph - N/A   Overcast
4:53 AM 35.1°F 30.9°F 85% 29.86 in 10.0 miles SSE 3.5 mph - N/A   Mostly Cloudy
5:53 AM 37.0°F 30.0°F 76% 29.82 in 10.0 miles SSE 5.8 mph - N/A   Overcast
6:53 AM 37.9°F 30.0°F 73% 29.80 in 10.0 miles South 3.5 mph - N/A   Overcast
7:53 AM 39.0°F 30.0°F 70% 29.79 in 10.0 miles SSE 5.8 mph - 0.00 in Rain Light Rain
8:53 AM 39.0°F 32.0°F 76% 29.77 in 10.0 miles East 12.7 mph - 0.00 in Rain Light Rain
9:53 AM 41.0°F 32.0°F 70% 29.73 in 10.0 miles East 13.8 mph 19.6 mph 0.00 in   Overcast
10:30 AM 42.8°F 30.2°F 61% 29.70 in 10.0 miles SE 9.2 mph 19.6 mph 0.00 in Rain Light Rain
10:53 AM 42.1°F 32.0°F 67% 29.70 in 10.0 miles ESE 5.8 mph - 0.00 in Rain Light Rain
11:53 AM 41.0°F 33.1°F 73% 29.64 in 10.0 miles ESE 8.1 mph 17.3 mph 0.00 in   Overcast
12:53 PM 42.1°F 34.0°F 73% 29.59 in 10.0 miles Calm Calm - 0.00 in Rain Light Rain
1:46 PM 42.8°F 33.8°F 70% 29.55 in 4.0 miles Calm Calm - 0.02 in Rain Rain
1:53 PM 42.1°F 35.1°F 76% 29.57 in 3.0 miles Calm Calm - 0.03 in Rain Light Rain
2:53 PM 41.0°F 36.0°F 82% 29.57 in 8.0 miles East 5.8 mph - 0.05 in Rain Light Rain
3:53 PM 39.9°F 35.1°F 83% 29.60 in 7.0 miles Variable 3.5 mph - 0.03 in Rain Light Rain
4:53 PM 39.0°F 36.0°F 89% 29.59 in 10.0 miles East 9.2 mph - 0.02 in Rain Light Rain
5:53 PM 39.9°F 36.0°F 86% 29.60 in 10.0 miles ESE 4.6 mph - 0.00 in   Overcast
6:53 PM 43.0°F 37.0°F 80% 29.61 in 10.0 miles SE 5.8 mph - N/A   Overcast
7:53 PM 43.0°F 36.0°F 76% 29.62 in 10.0 miles SSE 8.1 mph - N/A   Overcast
8:53 PM 42.1°F 36.0°F 79% 29.64 in 10.0 miles Variable 4.6 mph - N/A   Overcast
9:53 PM 42.1°F 35.1°F 76% 29.67 in 10.0 miles SSE 5.8 mph - N/A   Overcast
10:53 PM 42.1°F 35.1°F 76% 29.70 in 10.0 miles SE 6.9 mph 16.1 mph N/A   Overcast
11:53 PM 42.1°F 34.0°F 73% 29.72 in 10.0 miles SSE 8.1 mph - N/A   Overcast
Moon Phase
Dec. 15 Dec. 20 Dec. 28 Jan. 04 Jan. 11
Sunrise:07:50 AM (PST) Moon Rise:09:39 AM (PST)12/15
Sunset:04:18 PM (PST) Moon Set:07:38 PM (PST)12/15

Copyright © 2014 The Weather Underground, Inc.